[[{"header":{"parameterUnit":"m.s-1","parameterCategory":1,"la1":30.2991,"la2":30.254,"lo1":-89.0895,"lo2":-89.0444,"dy":0.0017,"dx":0.0017,"nx":28,"ny":28,"refTime":"2025-02-11T09:00:00:Z","depth":0,"parameterNumber":2,"parameterNumberName":"U-component_of_WINDS"},"data":[0,0,0,0,0,0,0,0,0,0,0,0,0,0,0,0,0,0,0,0,0,0,0,0,0,0,0,0,0,0,0,0,0,0,0,0,0,0,0,0,0,0,0,0,0,0,0,0,0,0,0,0,0,0,0,0,0,0,-0.4052,-0.4053,0,-0.4123,-0.4124,-0.4124,-0.4171,-0.4171,-0.4172,-0.4172,-0.4242,-0.4243,-0.4245,0,0,0,0,0,0,0,0,0,0,0,0,0,-0.3953,-0.3954,-0.4052,-0.4053,-0.4054,-0.4123,-0.4124,-0.4125,-0.4171,-0.4171,-0.4172,-0.4172,-0.4241,-0.4243,-0.4245,0,0,0,0,0,0,0,0,0,0,0,0,0,-0.4007,-0.3955,-0.4052,-0.4085,-0.4089,-0.4122,-0.4124,-0.4125,-0.4171,-0.4171,-0.4172,-0.4172,-0.424,-0.4243,-0.4245,-0.425,0,0,-0.4252,-0.4253,0,0,0,0,0,0,0,0,-0.4004,-0.401,-0.4079,-0.4083,-0.4087,-0.4139,-0.4114,-0.4167,-0.4171,-0.414,-0.4172,-0.4172,-0.4207,-0.4212,-0.4224,-0.4253,-0.4256,-0.4252,-0.4254,-0.4255,-0.4255,0,0,0,0,0,0,0,-0.4,-0.4008,-0.408,-0.408,-0.4085,-0.4095,-0.4104,-0.4124,-0.4169,-0.4142,-0.4146,-0.4154,-0.4209,-0.4222,-0.4226,-0.4257,-0.4252,-0.4254,-0.4256,-0.4257,-0.4292,-0.4292,0,0,0,0,0,0,-0.3991,-0.4004,-0.4078,-0.4082,-0.4046,-0.4097,-0.4106,-0.4121,-0.4169,-0.4177,-0.4153,-0.4156,-0.4217,-0.4223,-0.4229,-0.4237,-0.4255,-0.4257,-0.4258,-0.4293,-0.4292,-0.4292,0,0,0,0,0,0,-0.3989,-0.3997,-0.4075,-0.4044,-0.4055,-0.4098,-0.4115,-0.4123,-0.4136,-0.4178,-0.4186,-0.4158,-0.4218,-0.4225,-0.4244,-0.424,-0.4258,-0.426,-0.4293,-0.4293,-0.4292,-0.4254,0,0,0,0,0,0,-0.3986,-0.3996,-0.4,-0.4044,-0.4056,-0.409,-0.4115,-0.4124,-0.414,-0.4144,-0.4185,-0.4192,-0.4219,-0.424,-0.4246,-0.4243,-0.4262,-0.4294,-0.4293,-0.4292,-0.4256,-0.4252,-0.4249,0,0,0,0,0,-0.3982,-0.3986,-0.4,-0.4008,-0.4061,-0.409,-0.4097,-0.4129,-0.4139,-0.4142,-0.4169,-0.4191,-0.4239,-0.4242,-0.4249,-0.4247,-0.4294,-0.4293,-0.4292,-0.4257,-0.4253,-0.4249,0,0,0,0,0,0,-0.3939,-0.3992,-0.4008,-0.4026,-0.4053,-0.4098,-0.4103,-0.4123,-0.4147,-0.415,-0.4187,-0.4196,-0.4211,-0.4231,-0.4233,-0.4253,-0.4269,-0.427,-0.424,-0.4236,-0.4233,-0.4227,-0.4264,0,0,0,0,0,-0.3932,-0.3952,-0.3997,-0.4008,-0.4021,-0.4059,-0.4073,-0.4095,-0.4124,-0.4136,-0.4164,-0.419,-0.4212,-0.4225,-0.4247,-0.4258,-0.4267,-0.426,-0.4257,-0.4254,-0.4253,-0.426,-0.4257,-0.4288,-0.4288,-0.4288,0,0,-0.3917,-0.3949,-0.3959,-0.4,-0.4024,-0.4042,-0.4069,-0.4087,-0.4101,-0.4138,-0.4158,-0.4179,-0.4211,-0.4226,-0.4234,-0.4243,-0.4247,-0.4252,-0.425,-0.4251,-0.4258,-0.4255,-0.4253,-0.4288,-0.4288,-0.4288,0,0,-0.39,-0.3926,-0.3938,-0.3961,-0.3996,-0.4021,-0.4024,-0.4065,-0.4081,-0.4101,-0.4129,-0.4145,-0.4182,-0.4203,-0.4218,-0.4207,-0.4227,-0.4213,-0.4195,-0.42,-0.4198,-0.4196,-0.4191,-0.4189,-0.4212,-0.4212,-0.4212,0,-0.3876,-0.3907,-0.3941,-0.3958,-0.3975,-0.401,-0.4021,-0.4041,-0.4082,-0.4092,-0.4102,-0.4147,-0.4171,-0.4191,-0.4188,-0.4199,-0.4203,-0.4208,-0.4195,-0.4194,-0.4192,-0.4188,-0.4186,-0.421,-0.421,-0.4211,-0.4211,0,-0.3876,-0.3896,-0.3901,-0.394,-0.3957,-0.3971,-0.4006,-0.4019,-0.4039,-0.4063,-0.4082,-0.4112,-0.414,-0.4147,-0.4166,-0.4169,-0.4173,-0.4189,-0.4205,-0.4187,-0.4183,-0.4182,-0.4207,-0.4208,-0.4209,-0.4209,0,0,-0.3834,-0.3891,-0.3892,-0.391,-0.395,-0.3966,-0.3981,-0.4009,-0.4019,-0.4045,-0.4057,-0.4086,-0.4101,-0.4118,-0.414,-0.4145,-0.4133,-0.416,-0.4161,-0.4153,-0.4136,-0.4124,-0.4122,-0.4146,-0.4146,-0.4146,-0.4133,0,-0.3823,-0.3852,-0.3883,-0.3901,-0.3919,-0.3952,-0.3964,-0.399,-0.4012,-0.4029,-0.4053,-0.4073,-0.4091,-0.4101,-0.4108,-0.4133,-0.413,-0.4134,-0.4157,-0.4158,-0.4148,-0.412,-0.4108,-0.4095,-0.4132,-0.4132,-0.4132,0,-0.3813,-0.3838,-0.3858,-0.3896,-0.3905,-0.3916,-0.3943,-0.396,-0.3989,-0.4005,-0.4023,-0.4047,-0.4062,-0.4077,-0.4098,-0.41,-0.4111,-0.4125,-0.4125,-0.4128,-0.4144,-0.4122,-0.4092,-0.4089,-0.413,-0.413,-0.4131,0,-0.378,-0.3819,-0.3836,-0.3849,-0.3894,-0.3901,-0.392,-0.3949,-0.3964,-0.3987,-0.3996,-0.4021,-0.4034,-0.4052,-0.4081,-0.4089,-0.4098,-0.4116,-0.4111,-0.411,-0.4112,-0.4111,-0.4082,-0.4119,-0.4119,-0.4119,-0.4119,0,-0.3764,-0.3775,-0.3821,-0.3832,-0.3844,-0.3878,-0.3889,-0.3911,-0.3936,-0.395,-0.3979,-0.3992,-0.4029,-0.4045,-0.4067,-0.4081,-0.4087,-0.4099,-0.4105,-0.4096,-0.4095,-0.4104,-0.4106,-0.4118,-0.4118,-0.4118,-0.4119,0,-0.373,-0.3762,-0.3782,-0.3822,-0.3833,-0.384,-0.3874,-0.3884,-0.3907,-0.3925,-0.393,-0.3966,-0.3987,-0.4017,-0.4046,-0.4061,-0.4071,-0.4081,-0.4062,-0.4065,-0.4058,-0.4058,-0.4034,-0.4032,-0.407,-0.407,-0.4069,0,-0.3718,-0.3727,-0.3768,-0.378,-0.3798,-0.3816,-0.3831,-0.3864,-0.3878,-0.3911,-0.3917,-0.394,-0.396,-0.399,-0.4018,-0.404,-0.4051,-0.404,-0.4054,-0.4045,-0.405,-0.4049,-0.4049,-0.4037,-0.4036,-0.4036,-0.4036,0,-0.3693,-0.3707,-0.3728,-0.3754,-0.3771,-0.3792,-0.3815,-0.3823,-0.386,-0.3874,-0.3896,-0.3911,-0.3941,-0.3963,-0.3988,-0.4006,-0.4027,-0.4031,-0.4031,-0.4023,-0.4011,-0.4017,-0.4052,-0.4031,-0.4032,-0.4032,-0.4032,-0.4033,-0.3669,-0.3678,-0.3708,-0.373,-0.375,-0.3771,-0.3782,-0.3807,-0.3825,-0.3853,-0.3871,-0.3891,-0.3917,-0.3954,-0.3971,-0.3986,-0.3995,-0.3995,-0.3995,-0.3994,-0.3991,-0.4008,-0.3991,-0.3991,-0.3991,-0.3991,-0.3991,0,-0.3645,-0.3666,-0.3685,-0.3716,-0.3733,-0.3751,-0.3776,-0.3789,-0.3806,-0.383,-0.3849,-0.3873,-0.3893,-0.3922,-0.3945,-0.3951,-0.3961,-0.3956,-0.3956,-0.3959,-0.3982,-0.398,-0.3948,-0.3948,-0.3948,-0.3948,-0.3948,-0.3948,-0.3635,-0.3651,-0.3668,-0.3694,-0.3715,-0.3735,-0.3748,-0.3766,-0.3785,-0.3811,-0.3828,-0.3847,-0.3873,-0.3897,-0.3916,-0.3924,-0.3931,-0.3923,-0.3933,-0.3954,-0.3958,-0.3962,-0.396,-0.3924,-0.3924,-0.3909,-0.3909,-0.3909]},{"header":{"parameterUnit":"m.s-1","parameterCategory":1,"la1":30.2991,"la2":30.254,"lo1":-89.0895,"lo2":-89.0444,"dy":0.0017,"dx":0.0017,"nx":28,"ny":28,"refTime":"2025-02-11T09:00:00:Z","depth":0,"parameterNumber":3,"parameterNumberName":"V-component_of_WINDS"},"data":[0,0,0,0,0,0,0,0,0,0,0,0,0,0,0,0,0,0,0,0,0,0,0,0,0,0,0,0,0,0,0,0,0,0,0,0,0,0,0,0,0,0,0,0,0,0,0,0,0,0,0,0,0,0,0,0,0,0,6.928,6.9282,0,6.9518,6.9521,6.9523,6.9566,6.9564,6.9562,6.956,6.9807,6.9815,6.9824,0,0,0,0,0,0,0,0,0,0,0,0,0,6.8866,6.8874,6.9279,6.9283,6.9286,6.9517,6.9521,6.9524,6.9566,6.9563,6.9561,6.9559,6.9804,6.9814,6.9825,0,0,0,0,0,0,0,0,0,0,0,0,0,6.9069,6.8876,6.9279,6.9334,6.9342,6.9517,6.9521,6.9525,6.9566,6.9563,6.956,6.9558,6.9801,6.9813,6.9826,6.9964,0,0,6.9865,6.987,0,0,0,0,0,0,0,0,6.9058,6.9085,6.9323,6.9331,6.9339,6.9509,6.9466,6.9672,6.9567,6.9481,6.956,6.9556,6.9711,6.9731,6.9782,6.9976,6.9986,6.9866,6.9873,6.9879,6.9883,0,0,0,0,0,0,0,6.9044,6.9075,6.9374,6.9327,6.9337,6.9349,6.9375,6.9505,6.961,6.9488,6.9492,6.9519,6.9714,6.977,6.9788,6.999,6.9865,6.9877,6.9885,6.9889,7.0313,7.0317,0,0,0,0,0,0,6.9019,6.9062,6.9366,6.9381,6.9188,6.9359,6.9387,6.9458,6.9609,6.9629,6.9522,6.9521,6.9749,6.9773,6.9797,6.9972,6.9879,6.9891,6.9898,7.031,7.0314,7.0318,0,0,0,0,0,0,6.901,6.9046,6.9357,6.9223,6.9263,6.9369,6.9448,6.9464,6.9519,6.9634,6.9653,6.9559,6.9748,6.9779,6.9923,6.9981,6.9896,6.9908,7.0305,7.0311,7.0316,7.032,0,0,0,0,0,0,6.8998,6.9042,6.9094,6.9224,6.927,6.9477,6.9451,6.9471,6.954,6.9541,6.9673,6.9692,6.9748,6.9904,6.9935,6.9997,6.9918,7.0301,7.0308,7.0314,7.0315,7.0325,7.0333,0,0,0,0,0,6.8983,6.9086,6.9097,6.9133,6.9337,6.948,6.9507,6.9568,6.9544,6.9599,6.9673,6.9688,6.9969,6.9918,6.9954,7.002,7.0298,7.0306,7.0314,7.0311,7.0323,7.0333,0,0,0,0,0,0,6.896,6.9103,6.9117,6.9264,6.936,6.9487,6.9557,6.9578,6.9683,6.9679,6.9751,6.9781,6.9922,6.9985,6.9926,7.0164,7.0132,7.0148,7.0117,7.0129,7.0138,7.0121,6.9928,0,0,0,0,0,6.8972,6.9075,6.9195,6.9313,6.936,6.945,6.9515,6.9554,6.9656,6.9697,6.9781,6.9881,6.9993,7.0064,7.0172,7.0324,7.0356,7.0387,7.0396,7.0403,7.0417,7.0505,7.0522,7.0345,7.0345,7.0345,0,0,6.8998,6.9089,6.915,6.9311,6.9389,6.9496,6.9484,6.9597,6.9678,6.9714,6.9856,6.9922,7.0038,7.0187,7.0257,7.0245,7.0472,7.0414,7.0418,7.0428,7.0516,7.0532,7.0547,7.0351,7.035,7.0349,0,0,6.9101,6.9178,6.9287,6.9367,6.9486,6.9546,6.9572,6.9697,6.9742,6.9885,6.9916,7.0014,7.0202,7.0285,7.0352,7.049,7.0509,7.0523,7.057,7.0656,7.067,7.0683,7.0735,7.0753,7.0535,7.0536,7.0536,0,6.9119,6.9279,6.9341,6.9454,6.9525,6.9563,6.9676,6.975,6.9898,6.9948,6.9931,7.0172,7.0252,7.0423,7.0457,7.0509,7.0544,7.0509,7.0663,7.0676,7.0689,7.074,7.0759,7.0537,7.0537,7.0536,7.0536,0,6.9297,6.9408,6.9482,6.9625,6.9705,6.9816,6.9897,6.9971,7.0004,7.0066,7.0213,7.0312,7.0443,7.0486,7.0518,7.0663,7.0652,7.0648,7.0618,7.0706,7.0755,7.0775,7.0538,7.0538,7.0538,7.0537,0,0,6.9391,6.9568,6.9595,6.9661,6.9797,6.9885,7.0,7.0127,7.0191,7.0293,7.0393,7.0553,7.0552,7.0628,7.067,7.0745,7.0852,7.0733,7.0737,7.0754,7.1022,7.1025,7.1046,7.0865,7.0869,7.0872,7.1013,0,6.9512,6.9717,6.9777,6.9951,7.0056,7.0095,7.0196,7.0291,7.0353,7.0454,7.0522,7.0636,7.0624,7.0671,7.0746,7.0823,7.0907,7.0813,7.0962,7.0967,7.0933,7.1071,7.1075,7.1203,7.1032,7.1035,7.1038,0,6.968,6.9785,6.9969,7.0094,7.0141,7.023,7.0354,7.0448,7.0558,7.0598,7.0684,7.0721,7.0846,7.0808,7.0982,7.0917,7.0982,7.1029,7.1035,7.1053,7.1009,7.1096,7.1245,7.1265,7.1068,7.1065,7.1063,0,6.9734,6.9921,7.0057,7.0112,7.0261,7.0324,7.0389,7.0496,7.057,7.0678,7.0727,7.0849,7.0916,7.101,7.108,7.1045,7.125,7.1217,7.129,7.1288,7.1332,7.1329,7.1497,7.137,7.1369,7.1369,7.1369,0,6.9863,6.9975,7.0084,7.0167,7.0295,7.0364,7.0489,7.0556,7.0652,7.0751,7.0792,7.0884,7.097,7.1075,7.1131,7.1269,7.1298,7.1336,7.135,7.1334,7.1329,7.1379,7.1372,7.1374,7.1373,7.1372,7.1371,0,6.9945,7.0022,7.0173,7.0302,7.0337,7.0426,7.0537,7.0621,7.0685,7.081,7.0844,7.0945,7.1071,7.115,7.1309,7.1347,7.15,7.1509,7.1462,7.1469,7.1539,7.1532,7.1746,7.1779,7.1627,7.1628,7.163,0,7.0024,7.0111,7.025,7.0319,7.0385,7.0495,7.0571,7.0644,7.0722,7.0856,7.0924,7.1053,7.1159,7.1359,7.1448,7.1572,7.1587,7.1653,7.1605,7.1588,7.1591,7.1586,7.1597,7.1661,7.1662,7.1664,7.1664,0,7.0156,7.0191,7.0298,7.042,7.0509,7.0609,7.0708,7.0763,7.0853,7.0939,7.1068,7.1151,7.1315,7.1443,7.1575,7.1645,7.1672,7.1679,7.1703,7.1688,7.1658,7.1679,7.1487,7.1674,7.1673,7.1672,7.1672,7.1671,7.0242,7.0322,7.0433,7.0553,7.0635,7.0728,7.0814,7.0889,7.0998,7.1137,7.1173,7.1309,7.1421,7.1601,7.1674,7.1783,7.1774,7.1808,7.1817,7.1825,7.1828,7.1639,7.1807,7.1807,7.1807,7.1806,7.1806,0,7.0379,7.0453,7.0562,7.07,7.0795,7.081,7.0922,7.1001,7.1119,7.1221,7.1325,7.1476,7.1601,7.1701,7.183,7.1899,7.1915,7.1931,7.1928,7.1944,7.1827,7.1794,7.1916,7.1916,7.1916,7.1916,7.1916,7.1916,7.0461,7.06,7.0648,7.0829,7.0903,7.1036,7.1099,7.1186,7.1268,7.1433,7.1538,7.1601,7.1704,7.1842,7.1958,7.1985,7.2032,7.2046,7.2075,7.1964,7.1952,7.1941,7.1911,7.2055,7.2056,7.2185,7.2186,7.2187]}]]